Location: Hains Lake
(37.8540°N, 99.8578°W)
Time: 03:45:19
(UTC+00:00)

Vanguard 2 Rocket - Pass Details

Date: 24 April 2021
Orbit: 553 x 3326 km, 32.9° (Epoch: 07 May)

Event Time Altitude Azimuth Distance (km) Brightness Sun altitude
Rises 23:30:58 0° 280° (W) 7,101 12.9 21.1°
Reaches altitude 10° 23:35:40 10° 277° (W) 6,214 13.4 20.2°
Maximum altitude 23:55:19 58° 206° (SSW) 3,455 10.2 16.3°
Drops below altitude 10° 00:10:38 10° 132° (SE) 4,970 10.2 13.3°
Sets 00:13:56 0° 128° (SE) 5,664 10.4 12.6°
